Regional Weather Roundup
Issued by NWS Bismarck, ND

Home | Current Version | Previous Version | Text Only | Print | Product List | Glossary On
Versions: 1 2 3 4 5 6 7 8 9 10 11 12 13 14 15 16 17 18 19 20 21 22 23 24 25 26 27 28 29 30 31 32 33 34 35 36 37 38 39 40 41 42 43 44 45 46 47 48 49 50
271
ASUS43 KBIS 240702
RWRBIS

NWR BROADCAST TEXT
NATIONAL WEATHER SERVICE BISMARCK ND
100 AM CST FRI FEB 24 2017

NOTE: "FAIR" INDICATES FEW OR NO CLOUDS BELOW 12,000 FEET WITH NO
SIGNIFICANT WEATHER AND/OR OBSTRUCTIONS TO VISIBILITY.


CITY           SKY/WX    TMP DP  RH WIND       PRES   REMARKS
WILLISTON      FAIR       8   5  87 CALM      30.16S
MINOT            N/A     20  15  81 SW8       30.13R WCI  10
MINOT AFB      NOT AVBL
BISMARCK       FAIR      18  12  77 N6        30.16R WCI  10
DICKINSON      FAIR      11   6  81 N6        30.09S WCI   1
GARRISON         N/A     10   7  87 NW8       30.14R WCI  -2
HETTINGER ARPT FAIR      16  11  80 NE8       30.10R WCI   5
JAMESTOWN      FAIR      19  16  88 N7        30.11R WCI  10
CARRINGTON     FAIR      18  14  86 NW5       30.14S WCI  11
HAZEN            N/A    N/A N/A N/A S3        30.18R
MANDAN         FAIR      14  10  85 NW6       30.15R WCI   5
STANLEY        CLOUDY    19  18  93 W7        30.15R WCI  10
$$

CITY           SKY/WX    TMP DP  RH WIND       PRES   REMARKS
GRAND FORKS    FAIR      18  10  71 N3        30.16R
GRAND FORKS AF FAIR      15  12  90 N3        30.16R
DEVILS LAKE    FAIR      15  12  88 W6        30.13R WCI   6
FARGO          FAIR      21  12  68 N18       30.11S WCI   6
CAVALIER         N/A     14  12  92 N3        30.16R
GRAFTON        FAIR      14  12  92 CALM      30.18R
GWINNER        FAIR      23  19  86 N23       30.07F WCI   7
ROLLA          CLOUDY    21  16  79 W12       30.10S WCI   9
$$

CITY           SKY/WX    TMP DP  RH WIND       PRES   REMARKS
ABERDEEN       FAIR      21  13  71 N25G32    30.04F WCI   4
MOBRIDGE       CLOUDY    27  18  69 NE14      30.05R WCI  16
BUFFALO          N/A     21  18  88 NE10      29.98R WCI  10
RAPID CITY     CLOUDY    24  20  84 N10       29.99S WCI  14
GLASGOW        CLOUDY    25  17  72 E13       30.10S WCI  14
SIDNEY         CLOUDY    24  18  77 NE5       30.15S WCI  18
WOLF POINT     CLOUDY    26  18  71 E8        30.14S WCI  18
GLENDIVE       FLURRIES  24  21  88 E10       30.10S WCI  14
MILES CITY     CLOUDY    28  23  81 NE10      30.05F WCI  19
BAKER          CLOUDY    22  16  78 E13       30.07S WCI  10
$$

CITY           SKY/WX    TMP DP  RH WIND       PRES   REMARKS
BILLINGS       LGT SNOW  26  24  92 NE10      29.96F FOG     WCI  16
GREAT FALLS    CLOUDY    24  22  91 NE6       29.95F WCI  17
$$





USA.gov is the U.S. government's official web portal to all federal, state and local government web resources and services.